Weather History for Heraklion, Greece

Change the Weather History Date:

Sunday, April 7, 2013

  Actual Average Record
Temperature  
Mean Temperature 69 °F -  
Max Temperature 76 °F 69 °F 77 °F (2012)
Min Temperature 62 °F 55 °F 48 °F (1997)
Cooling Degree Days 4    
Growing Degree Days 19 (Base 50)    
Moisture  
Dew Point 47 °F    
Average Humidity 42    
Maximum Humidity 63    
Minimum Humidity 19    
Precipitation  
Precipitation 0.03 in 0.03 in - ()
Sea Level Pressure  
Sea Level Pressure 29.50 in    
Wind  
Wind Speed 21 mph ()    
Max Wind Speed 37 mph    
Max Gust Speed 48 mph    
Visibility 6.0 miles    
Events      
Averages and records for this station are not official NWS values.
T = Trace of Precipitation, MM = Missing Value Source: Averaged Metar Reports

Daily Weather History Graph

Daily Weather History Graph

Search for Another Location

Airport:

Trip Planner

Search our weather history database for the weather conditions in past years. The results will help you decide how hot, cold, wet, or windy it might be!

Date:

Astronomy

Apr. 07, 2013 Rise Set
Actual Time 6:57 AM EEST 7:45 PM EEST
Civil Twilight 6:31 AM EEST 8:11 PM EEST
Nautical Twilight 6:01 AM EEST 8:42 PM EEST
Astronomical Twilight 5:30 AM EEST 9:13 PM EEST
Moon 4:58 AM EEST (4/7) 5:02 PM EEST (4/7)
Length of Visible Light 13h 39m
Length of Day
12h 47m
Waning Crescent, 10% of the Moon is Illuminated
Apr 7
Waning Crescent
Apr 10
New
Apr 18
First Quarter
Apr 25
Full
May 2
Last Quarter

Hourly Weather History & Observations

Time (EEST) Temp. Dew Point Humidity Pressure Visibility Wind Dir Wind Speed Gust Speed Precip Events Conditions
12:20 AM 78.8 °F 37.4 °F 23% 29.65 in 6.2 mi South 19.6 mph - N/A   Scattered Clouds
12:50 AM 77.0 °F 42.8 °F 29% 29.65 in 6.2 mi South 16.1 mph - N/A   Partly Cloudy
1:20 AM 77.0 °F 42.8 °F 29% 29.65 in 6.2 mi South 15.0 mph - N/A   Partly Cloudy
1:50 AM 75.2 °F 44.6 °F 34% 29.65 in - SSW 10.4 mph - N/A   Clear
2:20 AM 75.2 °F 44.6 °F 34% 29.65 in - SW 13.8 mph - N/A   Clear
2:50 AM 73.4 °F 46.4 °F 38% 29.62 in - WSW 23.0 mph - N/A   Clear
3:00 AM 74 °F 46 °F 26% 29.62 in 6 mi WSW 23.0 mph - -  
3:20 AM 73.4 °F 46.4 °F 38% 29.62 in - WSW 12.7 mph - N/A   Clear
3:50 AM 73.4 °F 46.4 °F 38% 29.62 in - South 19.6 mph - N/A   Clear
4:20 AM 73.4 °F 46.4 °F 38% 29.62 in - South 19.6 mph - N/A   Clear
4:50 AM 75.2 °F 30.2 °F 19% 29.59 in 6.2 mi South 31.1 mph 42.6 mph N/A   Partly Cloudy
5:50 AM 77.0 °F 32.0 °F 19% 29.47 in 6.2 mi South 29.9 mph 41.4 mph N/A   Scattered Clouds
6:20 AM 77.0 °F 32.0 °F 19% 29.44 in 6.2 mi South 27.6 mph 39.1 mph N/A   Scattered Clouds
6:50 AM 77.0 °F 39.2 °F 26% 29.47 in 6.2 mi South 26.5 mph 38.0 mph N/A   Mostly Cloudy
7:20 AM 77.0 °F 39.2 °F 26% 29.47 in 6.2 mi South 24.2 mph 35.7 mph N/A   Mostly Cloudy
7:50 AM 75.2 °F 41.0 °F 29% 29.44 in 6.2 mi South 26.5 mph 38.0 mph N/A   Mostly Cloudy
8:20 AM 75.2 °F 41.0 °F 29% 29.44 in 6.2 mi South 29.9 mph 41.4 mph N/A   Mostly Cloudy
8:50 AM 73.4 °F 48.2 °F 41% 29.44 in 6.2 mi South 29.9 mph 41.4 mph N/A   Mostly Cloudy
9:00 AM 73 °F 48 °F 30% 29.46 in 6 mi South 29.9 mph - -   Partly Cloudy
9:20 AM 73.4 °F 48.2 °F 41% 29.44 in 6.2 mi South 36.8 mph 48.3 mph N/A   Mostly Cloudy
9:50 AM 71.6 °F 50.0 °F 46% 29.42 in 6.2 mi South 32.2 mph 43.7 mph N/A   Scattered Clouds
10:20 AM 71.6 °F 50.0 °F 46% 29.42 in 6.2 mi South 29.9 mph 41.4 mph N/A   Scattered Clouds
10:50 AM 73.4 °F 53.6 °F 50% 29.44 in 6.2 mi South 31.1 mph 42.6 mph N/A   Scattered Clouds
11:20 AM 73.4 °F 53.6 °F 50% 29.44 in 6.2 mi South 27.6 mph - N/A   Scattered Clouds
11:50 AM 75.2 °F 50.0 °F 41% 29.42 in - South 26.5 mph - N/A   Clear
12:20 PM 75.2 °F 50.0 °F 41% 29.42 in - South 24.2 mph - N/A   Clear
12:50 PM 77.0 °F 57.2 °F 50% 29.42 in 5.6 mi South 26.5 mph - N/A   Unknown
1:20 PM 77.0 °F 57.2 °F 50% 29.42 in 5.6 mi South 25.3 mph - N/A   Unknown
1:50 PM 75.2 °F 51.8 °F 44% 29.42 in 5.0 mi South 29.9 mph - N/A   Unknown
2:20 PM 75.2 °F 51.8 °F 44% 29.42 in 5.0 mi South 26.5 mph - N/A   Unknown
2:50 PM 75.2 °F 48.2 °F 38% 29.42 in 5.0 mi South 26.5 mph 38.0 mph N/A   Partly Cloudy
3:00 PM 75 °F 49 °F 29% 29.42 in 5 mi South 26.5 mph - -   Widespread Dust
3:20 PM 75.2 °F 48.2 °F 38% 29.42 in 5.0 mi SSW 24.2 mph - N/A   Partly Cloudy
3:50 PM 73.4 °F 50.0 °F 44% 29.42 in 6.2 mi South 21.9 mph - N/A   Partly Cloudy
4:20 PM 73.4 °F 50.0 °F 44% 29.42 in 6.2 mi SSW 24.2 mph - N/A   Partly Cloudy
4:50 PM 71.6 °F 51.8 °F 50% 29.44 in 6.2 mi SSW 24.2 mph - N/A   Partly Cloudy
5:20 PM 71.6 °F 51.8 °F 50% 29.44 in 6.2 mi SSW 23.0 mph - N/A   Partly Cloudy
5:50 PM 69.8 °F 50.0 °F 49% 29.44 in 6.2 mi SSW 19.6 mph - N/A   Partly Cloudy
6:20 PM 69.8 °F 50.0 °F 49% 29.44 in 6.2 mi SSW 21.9 mph - N/A   Partly Cloudy
6:50 PM 68.0 °F 50.0 °F 52% 29.47 in 6.2 mi SSW 17.3 mph - N/A   Partly Cloudy
7:20 PM 68.0 °F 50.0 °F 52% 29.47 in 6.2 mi SSW 19.6 mph - N/A   Partly Cloudy
7:50 PM 64.4 °F 50.0 °F 59% 29.50 in 6.2 mi SSW 21.9 mph - N/A   Partly Cloudy
8:20 PM 64.4 °F 50.0 °F 59% 29.50 in 6.2 mi SSW 21.9 mph - N/A   Partly Cloudy
8:50 PM 64.4 °F 50.0 °F 59% 29.53 in 6.2 mi SSW 20.7 mph - N/A   Partly Cloudy
9:00 PM 64 °F 50 °F 50% 29.54 in 6 mi SSW 20.7 mph - -   Scattered Clouds
9:20 PM 64.4 °F 50.0 °F 59% 29.53 in 6.2 mi SSW 20.7 mph - N/A   Partly Cloudy
9:50 PM 64.4 °F 48.2 °F 56% 29.53 in 6.2 mi SSW 25.3 mph - N/A   Partly Cloudy
10:20 PM 64.4 °F 48.2 °F 56% 29.53 in 6.2 mi South 26.5 mph - N/A   Partly Cloudy
10:50 PM 62.6 °F 48.2 °F 59% 29.53 in 6.2 mi South 28.8 mph - N/A   Partly Cloudy
11:20 PM 62.6 °F 48.2 °F 59% 29.53 in 6.2 mi SSW 25.3 mph - N/A   Partly Cloudy
11:50 PM 62.6 °F 50.0 °F 63% 29.56 in 6.2 mi SSW 24.2 mph - N/A   Partly Cloudy